Regional Weather Roundup
Issued by NWS Sterling, VA

Home | Current Version | Previous Version | Text Only | Print | Product List | Glossary On
Versions: 1 2 3 4 5 6 7 8 9 10 11 12 13 14 15 16 17 18 19 20 21 22 23 24 25 26 27
000
ASUS41 KLWX 031112
RWRLWX

REGIONAL WEATHER ROUNDUP
NATIONAL WEATHER SERVICE BALTIMORE MD/WASHINGTON DC
700 AM EDT TUE AUG 03 2021

Note: "FAIR" indicates few or no clouds below 12,000 feet
with no significant weather and/or obstructions to visibility.
 TC=TEMPERATURE CELSIUS

 * =Non NWS site. Station does not report precipitation (e.g. rain,
    snow, etc.), thunder, or fog.

DCZ001-MDZ009-015-VAZ040>042-051-053>054-031200-
WASHINGTON METRO

CITY           SKY/WX    TMP DP  RH WIND       PRES   REMARKS
WASHINGTON NAT CLOUDY    68  62  81 N5        30.11S
DULLES         CLOUDY    63  59  87 NW5       30.11S
ANDREWS AFB    CLOUDY    64  61  88 CALM      30.09S
FT BELVOIR     CLOUDY    63  61  96 CALM      30.10S
QUANTICO       CLOUDY    67  63  87 NW7       30.10S FOG
COLLEGE PARK*  CLOUDY    61  59  94 CALM      30.11S
LEESBURG*      CLOUDY    57  55  94 CALM      30.13S
MANASSAS*      CLOUDY    61  59  93 N5        30.11S
GAITHERSBURG*  CLOUDY    61  59  93 CALM      30.12F

$$

MDZ006>007-011-014-031200-
BALTIMORE METRO

CITY           SKY/WX    TMP DP  RH WIND       PRES   REMARKS
BWI AIRPORT    CLOUDY    65  59  81 VRB3      30.11R
MARTIN STATE   CLEAR     64  63  94 CALM      30.13S
ANNAPOLIS      CLOUDY    71  61  70 N6        30.10S
ABERDEEN*      CLOUDY    59  59  98 CALM      30.10S
FORT MEADE*    CLOUDY    59  59 100 CALM      30.13F

$$

MDZ012-015-019>023-031200-
MARYLAND EASTERN SHORE

CITY           SKY/WX    TMP DP  RH WIND       PRES   REMARKS
OCEAN CITY     CLOUDY    65  64  97 CALM      30.11R
SALISBURY      CLOUDY    65  63  93 CALM      30.11R
CAMBRIDGE*     CLEAR     64  64 100 CALM      30.10S
EASTON*        CLEAR     64  64 100 CALM      30.14R

$$

MDZ017>025-031200-
SOUTHERN MARYLAND

CITY           SKY/WX    TMP DP  RH WIND       PRES   REMARKS
PATUXENT RIVER CLOUDY    69  62  78 NE3       30.09S
ST INIGOES     CLOUDY    69  64  84 NE3       30.08S
LEONARDTOWN*   CLOUDY    63  63 100 CALM      30.11S

$$

MDZ003>005-031200-
NORTH CENTRAL MARYLAND

CITY           SKY/WX    TMP DP  RH WIND       PRES   REMARKS
FREDERICK*     CLEAR     59  57  94 CALM      30.12F
HAGERSTOWN APT CLOUDY    61  54  77 CALM      30.12S
WESTMINSTER*   CLOUDY    63  57  82 CALM      30.13S

$$

MDZ501>502-031200-
WESTERN MARYLAND

CITY           SKY/WX    TMP DP  RH WIND       PRES   REMARKS
OAKLAND*       MOCLDY    55  46  71 E7        30.17S
CUMBERLAND*    CLOUDY    55  53  90 CALM      30.18R

$$

VAZ025>031-031200-
SHENANDOAH VALLEY

CITY           SKY/WX    TMP DP  RH WIND       PRES   REMARKS
WINCHESTER*    CLOUDY    57  54  88 CALM      30.11R
FRONT ROYAL*   CLOUDY    57  55  94 CALM      30.12R
LURAY*         CLOUDY    61  59  94 CALM      30.13S
NEW MARKET*    CLOUDY    62  59  91 CALM      30.12S
STAUNTON*      CLOUDY    61  58  89 CALM      30.15R
WAYNESBORO*    CLOUDY    62  59  88 CALM      30.14R

$$

WVZ021-048>050-054>055-031200-
EASTERN WEST VIRGINIA PANHANDLE

CITY           SKY/WX    TMP DP  RH WIND       PRES   REMARKS
MARTINSBURG    CLOUDY    56  54  93 CALM      30.11S
PETERSBURG*    CLOUDY    61  61 100 CALM      30.14S

$$

VAZ036>039-050-031200-
CENTRAL FOOTHILLS

CITY           SKY/WX    TMP DP  RH WIND       PRES   REMARKS
CHARLOTTESVILL CLOUDY    65  58  78 CALM      30.11R
CULPEPER*      CLOUDY    62  60  94 N3        30.12S
ORANGE*        CLOUDY    61  59  94 CALM      30.11R
GORDONSVILLE*  CLOUDY    62  62 100 CALM      30.10S
WARRENTON*     CLOUDY    62  59  91 CALM      30.11S

$$

VAZ055>057-031200-
NORTH AND CENTRAL PIEDMONT

CITY           SKY/WX    TMP DP  RH WIND       PRES   REMARKS
FREDERICKSBRG* CLOUDY    65  65  99 CALM      30.08S
STAFFORD*      CLOUDY    64  61  91 CALM      30.14S

$$

NCZ024-NYZ072-PAZ021-071-VAZ022-071-031200-
OTHER REGIONAL OBSERVATIONS

CITY           SKY/WX    TMP DP  RH WIND       PRES   REMARKS
NEW YORK CITY  CLOUDY    67  57  70 NE3       30.15
PHILADELPHIA   CLOUDY    66  56  70 N6        30.12S
PITTSBURGH     PTCLDY    58  51  78 CALM      30.12S
ROANOKE        CLOUDY    69  60  73 S3        30.13R
RICHMOND       CLOUDY    67  64  90 NE7       30.08S
RALEIGH        CLOUDY    70  64  81 NE6       30.04R

$$

ANZ530>537-031200-
MARINE OBSERVATIONS

STATION/POSITION TIME  TEMP    WIND        PRES
                       AIR SEA DIR/SP/G
                 (UTC) (F)     (DEG/KT/KT) (MB)
THOMAS PT LIGHT  1100   72 79  330/  7/  7 1020.3R
TOLCHESTER       1024   65 79   80/  2/  3 1019.6
GOOSES REEF      1042   73 79   80/  6/  8 1020.0R
COVE POINT       1024   74      30/  5/  6 1019.0
BALT HARBOR      1024   69 81   30/  3/  4 1019.2
BALT KEY BRIDGE  1024   70      10/  3/  4 1019.4
WASH DC CHANNEL  1024   70 81  290/  1/  2 1019.6
DAHLGREN         1018   67 81  330/  2/  2 1018.3
LEWISETTA        1030   73 81  290/  2/  3 1018.7R
SOLOMONS ISLAND  1024   73 81   10/  5/  6 1018.9R
PINEY POINT      1030           50/  5/  7   N/A
POTOMAC BUOY     1030   73     350/  6/  8 1019.3R
CAMBRIDGE PIER   1024   70 81  160/  1/  2 1019.2
BISHOPS HEAD     1024   73 78   60/  5/  6 1019.1
CHESAPEAKE CITY  1024   62 80   CALM  /  2 1019.9

$$




USA.gov is the U.S. government's official web portal to all federal, state and local government web resources and services.